FW9848 Weather Reports


Display with metric or nautical units.
time (UTC)temp
F
wind
direction
speed
MPH
gust
MPH
rain 1hr
in
rain 24hr
in
rain mn
in
humidity
%
barometer
mb
20260509051556 72 0 0.0 0.0 0.00 0.00 0.00 79 1012.9
20260509050056 72 0 0.0 0.0 0.00 0.00 0.00 80 1012.9
20260509044602 72 0 0.0 0.0 0.00 0.00 0.00 81 1013.0
20260509043054 72 0 0.0 0.0 0.00 0.00 0.00 81 1012.7
20260509041552 72 0 0.0 0.0 0.00 0.00 0.00 81 1012.6
20260509040056 72 0 0.0 0.0 0.00 0.00 0.00 81 1012.5
20260509034551 72 0 0.0 0.0 0.00 0.00 0.00 82 1011.9
20260509033050 72 0 0.0 3.0 0.00 0.00 0.00 82 1011.5
20260509031607 73 0 0.0 0.0 0.00 0.00 0.00 83 1011.6
20260509030049 73 0 0.0 0.0 0.00 0.00 0.00 83 1011.5
20260509024545 73 0 0.0 0.0 0.00 0.00 0.00 83 1011.5
20260509023102 74 0 0.0 0.0 0.00 0.00 0.00 82 1011.4
20260509021549 74 0 0.0 0.0 0.00 0.00 0.00 82 1011.4
20260509020053 74 0 0.0 0.0 0.00 0.00 0.00 81 1011.0
20260509014548 74 0 0.0 0.0 0.00 0.00 0.00 81 1010.7
20260509013049 75 0 0.0 0.0 0.00 0.00 0.00 80 1010.3
20260509011551 75 0 0.0 0.0 0.00 0.00 0.00 78 1010.5
20260509010054 76 0 0.0 0.0 0.00 0.00 0.00 78 1010.4
20260509004553 76 0 0.0 0.0 0.00 0.00 0.00 77 1010.4
20260509003055 77 0 0.0 0.0 0.00 0.00 0.00 76 1010.3
20260509001552 78 0 0.0 0.0 0.00 0.00 0.00 74 1010.2
20260509000050 77 0 0.0 0.0 0.00 0.00 0.00 75 1010.5
20260508234554 77 0 0.0 0.0 0.00 0.00 0.00 74 1010.4
20260508233055 78 0 0.0 0.0 0.00 0.00 0.00 74 1010.3
20260508231557 78 0 0.0 0.0 0.00 0.00 0.00 74 1010.5
20260508230124 79 0 0.0 0.0 0.00 0.00 0.00 71 1010.5
20260508224559 78 0 0.0 3.0 0.00 0.00 0.00 75 1010.7
20260508223048 78 0 0.0 2.0 0.00 0.00 0.00 74 1010.8
20260508221553 78 0 0.0 2.0 0.00 0.00 0.00 76 1010.8
20260508220117 77 0 0.0 0.0 0.00 0.00 0.00 75 1010.9
20260508214551 77 0 0.0 0.0 0.00 0.00 0.00 74 1011.0
20260508213056 77 0 0.0 0.0 0.00 0.00 0.00 74 1011.1
20260508211552 77 0 0.0 0.0 0.00 0.00 0.00 74 1011.3
20260508210058 77 0 0.0 0.0 0.00 0.00 0.00 74 1011.7
20260508204603 77 0 0.0 0.0 0.00 0.00 0.00 73 1011.9
20260508203054 78 0 0.0 0.0 0.00 0.00 0.00 72 1012.1
20260508201551 77 0 0.0 0.0 0.00 0.00 0.00 74 1011.9
20260508200055 77 0 0.0 5.0 0.00 0.00 0.00 75 1012.0
20260508194548 78 0 0.0 5.0 0.00 0.00 0.00 71 1012.1
20260508193104 78 0 0.0 0.0 0.00 0.00 0.00 73 1012.1
20260508191553 78 0 0.0 1.0 0.00 0.00 0.00 74 1012.2
20260508190104 79 0 0.0 0.0 0.00 0.00 0.00 71 1012.3
20260508184553 79 0 0.0 2.0 0.00 0.00 0.00 73 1012.7
20260508183049 77 227 1.0 3.0 0.00 0.00 0.00 74 1012.7
20260508181608 75 0 0.0 0.0 0.00 0.00 0.00 75 1012.9
20260508180105 74 0 0.0 5.0 0.00 0.00 0.00 77 1013.2
20260508174604 73 0 0.0 0.0 0.00 0.00 0.00 78 1013.6
20260508173049 71 0 0.0 0.0 0.00 0.00 0.00 79 1013.9
20260508171555 70 0 0.0 0.0 0.00 0.00 0.00 81 1013.9
20260508170105 69 0 0.0 0.0 0.00 0.00 0.00 82 1014.0
20260508164556 69 0 0.0 0.0 0.00 0.00 0.00 81 1014.2
20260508163049 68 0 0.0 0.0 0.00 0.00 0.00 82 1014.3
20260508161553 67 0 0.0 0.0 0.00 0.00 0.00 82 1014.3
20260508160105 66 0 0.0 0.0 0.00 0.00 0.00 83 1014.4
20260508154552 66 0 0.0 2.0 0.00 0.00 0.00 83 1014.6
20260508153048 65 0 0.0 0.0 0.00 0.00 0.00 83 1014.8
20260508151549 65 0 0.0 0.0 0.00 0.00 0.00 83 1015.1
20260508150050 65 0 0.0 4.0 0.00 0.00 0.00 83 1015.0
20260508144553 65 0 0.0 4.0 0.00 0.00 0.00 83 1015.2
20260508143057 64 265 0.0 2.0 0.00 0.00 0.00 83 1015.1
20260508141557 63 0 0.0 0.0 0.00 0.00 0.00 83 1015.2
20260508140049 63 0 0.0 0.0 0.00 0.00 0.00 83 1015.2
20260508134558 63 0 0.0 1.0 0.00 0.00 0.00 83 1015.1
20260508133050 63 0 0.0 3.0 0.00 0.00 0.00 83 1014.9
20260508131551 63 323 0.0 7.0 0.00 0.00 0.00 83 1014.6
20260508130053 62 0 0.0 0.0 0.00 0.00 0.00 83 1014.8
20260508124553 62 0 0.0 0.0 0.00 0.00 0.00 83 1015.0
20260508123104 62 0 0.0 0.0 0.00 0.00 0.00 83 1014.9
20260508121549 62 0 0.0 0.0 0.00 0.00 0.00 83 1015.1
20260508120048 63 0 0.0 0.0 0.00 0.00 0.00 83 1015.2
20260508114552 63 0 0.0 0.0 0.00 0.00 0.00 83 1015.4
20260508113105 63 0 0.0 0.0 0.00 0.00 0.00 83 1015.3
20260508111556 63 0 0.0 0.0 0.00 0.00 0.00 84 1015.2
20260508110053 63 0 0.0 0.0 0.00 0.00 0.00 83 1014.8
20260508104549 63 0 0.0 0.0 0.00 0.00 0.00 83 1015.0
20260508103052 63 0 0.0 0.0 0.00 0.00 0.00 83 1015.6
20260508101558 63 0 0.0 0.0 0.00 0.00 0.00 83 1015.5
20260508100052 62 0 0.0 0.0 0.00 0.00 0.00 83 1015.0
20260508094612 62 0 0.0 0.0 0.00 0.00 0.00 83 1015.2
20260508093058 63 0 0.0 0.0 0.00 0.00 0.00 83 1015.2
20260508091553 63 0 0.0 0.0 0.00 0.00 0.00 82 1014.4
20260508090052 64 0 0.0 0.0 0.00 0.00 0.00 81 1015.3
20260508084552 64 0 0.0 0.0 0.00 0.00 0.00 80 1015.1
20260508083050 64 0 0.0 0.0 0.00 0.00 0.00 79 1015.4
20260508081610 64 0 0.0 0.0 0.00 0.00 0.00 79 1015.4
20260508080055 64 0 0.0 0.0 0.00 0.00 0.00 78 1015.6
20260508074552 64 0 0.0 0.0 0.00 0.00 0.00 75 1015.7
20260508073055 64 0 0.0 0.0 0.00 0.00 0.00 75 1016.1
20260508071556 64 0 0.0 0.0 0.00 0.00 0.00 75 1016.1
20260508070054 65 0 0.0 0.0 0.00 0.00 0.00 72 1016.2
20260508064549 65 0 0.0 0.0 0.00 0.00 0.00 69 1016.1
20260508063103 65 0 0.0 0.0 0.00 0.00 0.00 69 1016.4
20260508061554 65 0 0.0 0.0 0.00 0.00 0.00 69 1016.0
20260508060053 65 0 0.0 0.0 0.00 0.00 0.00 69 1015.5
20260508054549 65 346 0.0 3.0 0.00 0.00 0.00 68 1015.4
20260508053051 65 0 0.0 0.0 0.00 0.00 0.00 69 1016.3